| time (UTC) | temp C | wind direction | speed KPH | gust KPH | rain 1hr cm | rain 24hr cm | rain mn cm | humidity % | barometer mb |
| 20260505001725 | 20 | 86 | 0.0 | 3.2 | 0.00 | 0.00 | 0.00 | 41 | 1014.6 |
| 20260505001223 | 21 | 122 | 3.2 | 3.2 | 0.00 | 0.00 | 0.00 | 38 | 1014.6 |
| 20260505000720 | 21 | 89 | 0.0 | 3.2 | 0.00 | 0.00 | 0.00 | 38 | 1014.4 |
| 20260505000219 | 21 | 60 | 0.0 | 3.2 | 0.00 | 0.00 | 0.00 | 38 | 1014.6 |
| 20260504235714 | 21 | 67 | 0.0 | 1.6 | 0.00 | 0.00 | 0.00 | 40 | 1014.3 |
| 20260504235210 | 21 | 117 | 0.0 | 1.6 | 0.00 | 0.00 | 0.00 | 35 | 1014.4 |
| 20260504234708 | 22 | 81 | 3.2 | 3.2 | 0.00 | 0.00 | 0.00 | 36 | 1014.4 |
| 20260504234205 | 22 | 143 | 0.0 | 3.2 | 0.00 | 0.00 | 0.00 | 34 | 1014.6 |
| 20260504233700 | 22 | 120 | 1.6 | 3.2 | 0.00 | 0.00 | 0.00 | 33 | 1014.4 |
| 20260504233156 | 22 | 121 | 1.6 | 4.8 | 0.00 | 0.00 | 0.00 | 33 | 1014.4 |
| 20260504232654 | 22 | 99 | 3.2 | 6.4 | 0.00 | 0.00 | 0.00 | 32 | 1014.4 |
| 20260504232151 | 22 | 99 | 1.6 | 3.2 | 0.00 | 0.00 | 0.00 | 33 | 1014.3 |
| 20260504231648 | 22 | 111 | 0.0 | 3.2 | 0.00 | 0.00 | 0.00 | 33 | 1014.3 |
| 20260504231144 | 23 | 101 | 0.0 | 3.2 | 0.00 | 0.00 | 0.00 | 33 | 1014.1 |
| 20260504230640 | 23 | 64 | 1.6 | 3.2 | 0.00 | 0.00 | 0.00 | 33 | 1014.1 |
| 20260504230139 | 23 | 229 | 1.6 | 4.8 | 0.00 | 0.00 | 0.00 | 31 | 1014.1 |
| 20260504225637 | 23 | 235 | 3.2 | 3.2 | 0.00 | 0.00 | 0.00 | 31 | 1014.0 |
| 20260504225133 | 23 | 103 | 1.6 | 1.6 | 0.00 | 0.00 | 0.00 | 32 | 1013.9 |
| 20260504224630 | 23 | 156 | 1.6 | 4.8 | 0.00 | 0.00 | 0.00 | 30 | 1014.0 |
| 20260504224127 | 23 | 101 | 0.0 | 1.6 | 0.00 | 0.00 | 0.00 | 31 | 1014.0 |
| 20260504223624 | 23 | 89 | 0.0 | 3.2 | 0.00 | 0.00 | 0.00 | 30 | 1014.1 |
| 20260504223120 | 23 | 68 | 0.0 | 3.2 | 0.00 | 0.00 | 0.00 | 29 | 1014.3 |
| 20260504222617 | 24 | 91 | 1.6 | 4.8 | 0.00 | 0.00 | 0.00 | 29 | 1014.3 |
| 20260504222114 | 24 | 148 | 1.6 | 3.2 | 0.00 | 0.00 | 0.00 | 29 | 1014.0 |
| 20260504221611 | 25 | 130 | 0.0 | 3.2 | 0.00 | 0.00 | 0.00 | 29 | 1014.0 |
| 20260504221108 | 25 | 252 | 1.6 | 3.2 | 0.00 | 0.00 | 0.00 | 28 | 1014.3 |
| 20260504220604 | 25 | 69 | 1.6 | 6.4 | 0.00 | 0.00 | 0.00 | 30 | 1014.3 |
| 20260504215558 | 25 | 235 | 3.2 | 4.8 | 0.00 | 0.00 | 0.00 | 29 | 1014.1 |
| 20260504215056 | 26 | 163 | 1.6 | 3.2 | 0.00 | 0.00 | 0.00 | 30 | 1014.1 |
| 20260504214551 | 26 | 76 | 0.0 | 4.8 | 0.00 | 0.00 | 0.00 | 28 | 1014.0 |
| 20260504214048 | 26 | 281 | 1.6 | 8.0 | 0.00 | 0.00 | 0.00 | 29 | 1014.1 |
| 20260504213544 | 26 | 26 | 1.6 | 8.0 | 0.00 | 0.00 | 0.00 | 28 | 1014.0 |
| 20260504213041 | 26 | 106 | 3.2 | 4.8 | 0.00 | 0.00 | 0.00 | 29 | 1014.1 |
| 20260504212537 | 26 | 230 | 3.2 | 4.8 | 0.00 | 0.00 | 0.00 | 29 | 1014.1 |
| 20260504212035 | 26 | 37 | 0.0 | 4.8 | 0.00 | 0.00 | 0.00 | 31 | 1014.1 |
| 20260504211532 | 26 | 61 | 1.6 | 8.0 | 0.00 | 0.00 | 0.00 | 31 | 1014.3 |
| 20260504211028 | 26 | 252 | 1.6 | 6.4 | 0.00 | 0.00 | 0.00 | 29 | 1014.1 |
| 20260504210525 | 26 | 250 | 0.0 | 4.8 | 0.00 | 0.00 | 0.00 | 28 | 1014.4 |
| 20260504210022 | 27 | 333 | 0.0 | 4.8 | 0.00 | 0.00 | 0.00 | 27 | 1014.1 |
| 20260504205520 | 26 | 282 | 0.0 | 3.2 | 0.00 | 0.00 | 0.00 | 30 | 1014.4 |
| 20260504205018 | 26 | 15 | 0.0 | 4.8 | 0.00 | 0.00 | 0.00 | 28 | 1014.4 |
| 20260504204515 | 27 | 143 | 3.2 | 4.8 | 0.00 | 0.00 | 0.00 | 29 | 1014.3 |
| 20260504204014 | 26 | 66 | 4.8 | 4.8 | 0.00 | 0.00 | 0.00 | 29 | 1014.6 |
| 20260504203512 | 26 | 180 | 0.0 | 6.4 | 0.00 | 0.00 | 0.00 | 28 | 1014.6 |
| 20260504203009 | 26 | 46 | 1.6 | 8.0 | 0.00 | 0.00 | 0.00 | 29 | 1014.6 |
| 20260504202505 | 26 | 26 | 4.8 | 6.4 | 0.00 | 0.00 | 0.00 | 27 | 1014.6 |
| 20260504202001 | 26 | 129 | 3.2 | 4.8 | 0.00 | 0.00 | 0.00 | 28 | 1014.7 |
| 20260504201459 | 27 | 13 | 1.6 | 4.8 | 0.00 | 0.00 | 0.00 | 27 | 1014.8 |
| 20260504200956 | 27 | 227 | 3.2 | 3.2 | 0.00 | 0.00 | 0.00 | 28 | 1014.7 |
| 20260504200453 | 26 | 118 | 0.0 | 6.4 | 0.00 | 0.00 | 0.00 | 29 | 1014.9 |
| 20260504195949 | 26 | 101 | 4.8 | 6.4 | 0.00 | 0.00 | 0.00 | 28 | 1014.8 |
| 20260504195445 | 27 | 276 | 3.2 | 11.3 | 0.00 | 0.00 | 0.00 | 28 | 1015.0 |
| 20260504194942 | 27 | 85 | 3.2 | 6.4 | 0.00 | 0.00 | 0.00 | 28 | 1015.2 |
| 20260504194438 | 27 | 14 | 1.6 | 3.2 | 0.00 | 0.00 | 0.00 | 28 | 1015.0 |
| 20260504193934 | 27 | 235 | 3.2 | 4.8 | 0.00 | 0.00 | 0.00 | 27 | 1015.0 |
| 20260504193432 | 27 | 96 | 4.8 | 6.4 | 0.00 | 0.00 | 0.00 | 28 | 1015.2 |
| 20260504192930 | 27 | 126 | 3.2 | 6.4 | 0.00 | 0.00 | 0.00 | 28 | 1015.2 |
| 20260504192427 | 26 | 312 | 0.0 | 3.2 | 0.00 | 0.00 | 0.00 | 28 | 1015.3 |
| 20260504191926 | 27 | 76 | 0.0 | 6.4 | 0.00 | 0.00 | 0.00 | 27 | 1015.5 |
| 20260504191424 | 27 | 196 | 1.6 | 6.4 | 0.00 | 0.00 | 0.00 | 29 | 1015.5 |
| 20260504190919 | 27 | 225 | 1.6 | 3.2 | 0.00 | 0.00 | 0.00 | 27 | 1015.5 |
| 20260504190415 | 27 | 168 | 3.2 | 3.2 | 0.00 | 0.00 | 0.00 | 28 | 1015.4 |
| 20260504185912 | 27 | 187 | 1.6 | 3.2 | 0.00 | 0.00 | 0.00 | 27 | 1015.6 |
| 20260504185409 | 27 | 213 | 1.6 | 4.8 | 0.00 | 0.00 | 0.00 | 27 | 1015.6 |
| 20260504184904 | 26 | 62 | 0.0 | 4.8 | 0.00 | 0.00 | 0.00 | 29 | 1015.7 |
| 20260504184401 | 26 | 73 | 0.0 | 8.0 | 0.00 | 0.00 | 0.00 | 29 | 1015.8 |
| 20260504183856 | 26 | 302 | 0.0 | 3.2 | 0.00 | 0.00 | 0.00 | 29 | 1015.9 |
| 20260504183354 | 26 | 73 | 0.0 | 3.2 | 0.00 | 0.00 | 0.00 | 31 | 1015.9 |
| 20260504182852 | 26 | 0 | 0.0 | 3.2 | 0.00 | 0.00 | 0.00 | 30 | 1015.9 |
| 20260504182349 | 25 | 329 | 0.0 | 3.2 | 0.00 | 0.00 | 0.00 | 32 | 1016.0 |
| 20260504181845 | 24 | 12 | 3.2 | 3.2 | 0.00 | 0.00 | 0.00 | 32 | 1015.9 |
| 20260504181343 | 24 | 61 | 3.2 | 6.4 | 0.00 | 0.00 | 0.00 | 32 | 1016.1 |
| 20260504180842 | 25 | 76 | 3.2 | 4.8 | 0.00 | 0.00 | 0.00 | 32 | 1016.1 |
| 20260504180340 | 24 | 259 | 1.6 | 3.2 | 0.00 | 0.00 | 0.00 | 36 | 1016.1 |
| 20260504175838 | 24 | 293 | 3.2 | 4.8 | 0.00 | 0.00 | 0.00 | 35 | 1016.1 |
| 20260504175334 | 23 | 27 | 1.6 | 3.2 | 0.00 | 0.00 | 0.00 | 35 | 1016.1 |
| 20260504174832 | 23 | 95 | 0.0 | 9.7 | 0.00 | 0.00 | 0.00 | 35 | 1016.1 |
| 20260504174330 | 22 | 26 | 3.2 | 3.2 | 0.00 | 0.00 | 0.00 | 36 | 1016.1 |
| 20260504173826 | 23 | 115 | 4.8 | 4.8 | 0.00 | 0.00 | 0.00 | 34 | 1016.2 |
| 20260504173323 | 22 | 200 | 1.6 | 3.2 | 0.00 | 0.00 | 0.00 | 39 | 1016.1 |
| 20260504172820 | 22 | 80 | 3.2 | 6.4 | 0.00 | 0.00 | 0.00 | 36 | 1016.1 |
| 20260504172317 | 22 | 93 | 0.0 | 4.8 | 0.00 | 0.00 | 0.00 | 36 | 1016.3 |
| 20260504171812 | 22 | 154 | 0.0 | 6.4 | 0.00 | 0.00 | 0.00 | 36 | 1016.5 |
| 20260504171310 | 22 | 66 | 1.6 | 3.2 | 0.00 | 0.00 | 0.00 | 36 | 1016.7 |
| 20260504170807 | 21 | 11 | 1.6 | 3.2 | 0.00 | 0.00 | 0.00 | 37 | 1016.8 |
| 20260504170304 | 21 | 22 | 1.6 | 3.2 | 0.00 | 0.00 | 0.00 | 37 | 1017.0 |
| 20260504160222 | 20 | 137 | 3.2 | 3.2 | 0.00 | 0.00 | 0.00 | 36 | 1018.0 |
| 20260504150653 | 18 | 63 | 1.6 | 4.8 | 0.00 | 0.00 | 0.00 | 41 | 1018.2 |
| 20260504150150 | 18 | 89 | 0.0 | 1.6 | 0.00 | 0.00 | 0.00 | 43 | 1018.3 |
| 20260504141119 | 16 | 114 | 3.2 | 4.8 | 0.00 | 0.00 | 0.00 | 52 | 1018.3 |
| 20260504140616 | 16 | 86 | 3.2 | 6.4 | 0.00 | 0.00 | 0.00 | 54 | 1018.0 |
| 20260504140111 | 16 | 76 | 3.2 | 3.2 | 0.00 | 0.00 | 0.00 | 54 | 1018.0 |
| 20260504130539 | 11 | 101 | 3.2 | 4.8 | 0.00 | 0.00 | 0.00 | 78 | 1018.0 |
| 20260504110427 | 6 | 72 | 1.6 | 3.2 | 0.00 | 0.00 | 0.00 | 88 | 1017.6 |
| 20260504100344 | 6 | 95 | 1.6 | 3.2 | 0.00 | 0.00 | 0.00 | 86 | 1017.1 |
| 20260504081737 | 7 | 69 | 3.2 | 3.2 | 0.00 | 0.00 | 0.00 | 85 | 1017.5 |
| 20260504081233 | 7 | 89 | 3.2 | 3.2 | 0.00 | 0.00 | 0.00 | 84 | 1017.3 |
| 20260504080730 | 7 | 94 | 3.2 | 3.2 | 0.00 | 0.00 | 0.00 | 85 | 1017.2 |
| 20260504080226 | 7 | 75 | 3.2 | 3.2 | 0.00 | 0.00 | 0.00 | 85 | 1017.1 |
| 20260504070154 | 7 | 92 | 3.2 | 3.2 | 0.00 | 0.00 | 0.00 | 83 | 1017.3 |
| 20260504060115 | 9 | 78 | 3.2 | 4.8 | 0.00 | 0.00 | 0.00 | 78 | 1017.5 |
| 20260504050543 | 9 | 101 | 3.2 | 4.8 | 0.00 | 0.00 | 0.00 | 77 | 1017.4 |
| 20260504045536 | 9 | 87 | 3.2 | 3.2 | 0.00 | 0.00 | 0.00 | 76 | 1017.4 |
| 20260504045032 | 9 | 95 | 3.2 | 3.2 | 0.00 | 0.00 | 0.00 | 75 | 1017.2 |
| 20260504044530 | 9 | 93 | 3.2 | 4.8 | 0.00 | 0.00 | 0.00 | 75 | 1017.4 |
| 20260504044026 | 10 | 92 | 3.2 | 3.2 | 0.00 | 0.00 | 0.00 | 74 | 1017.2 |
| 20260504043523 | 10 | 88 | 3.2 | 4.8 | 0.00 | 0.00 | 0.00 | 74 | 1017.2 |
| 20260504043021 | 10 | 78 | 3.2 | 4.8 | 0.00 | 0.00 | 0.00 | 74 | 1017.3 |
| 20260504042517 | 10 | 85 | 3.2 | 4.8 | 0.00 | 0.00 | 0.00 | 74 | 1017.4 |
| 20260504042015 | 10 | 85 | 3.2 | 3.2 | 0.00 | 0.00 | 0.00 | 73 | 1017.2 |
| 20260504041510 | 10 | 87 | 3.2 | 3.2 | 0.00 | 0.00 | 0.00 | 73 | 1017.3 |
| 20260504041006 | 10 | 86 | 3.2 | 3.2 | 0.00 | 0.00 | 0.00 | 72 | 1017.3 |
| 20260504040504 | 10 | 71 | 3.2 | 3.2 | 0.00 | 0.00 | 0.00 | 72 | 1017.4 |
| 20260504040000 | 10 | 76 | 3.2 | 4.8 | 0.00 | 0.00 | 0.00 | 72 | 1017.5 |
| 20260504035458 | 10 | 78 | 3.2 | 4.8 | 0.00 | 0.00 | 0.00 | 71 | 1017.5 |
| 20260504034954 | 10 | 87 | 3.2 | 3.2 | 0.00 | 0.00 | 0.00 | 71 | 1017.6 |
| 20260504034452 | 10 | 66 | 3.2 | 3.2 | 0.00 | 0.00 | 0.00 | 71 | 1017.5 |
| 20260504033948 | 10 | 76 | 3.2 | 3.2 | 0.00 | 0.00 | 0.00 | 71 | 1017.5 |
| 20260504033446 | 10 | 93 | 3.2 | 4.8 | 0.00 | 0.00 | 0.00 | 71 | 1017.4 |
| 20260504032943 | 10 | 66 | 3.2 | 3.2 | 0.00 | 0.00 | 0.00 | 70 | 1017.5 |
| 20260504032440 | 10 | 84 | 1.6 | 3.2 | 0.00 | 0.00 | 0.00 | 70 | 1017.5 |
| 20260504031937 | 11 | 86 | 3.2 | 3.2 | 0.00 | 0.00 | 0.00 | 69 | 1017.6 |
| 20260504031434 | 11 | 97 | 3.2 | 3.2 | 0.00 | 0.00 | 0.00 | 68 | 1017.5 |
| 20260504030930 | 11 | 88 | 3.2 | 4.8 | 0.00 | 0.00 | 0.00 | 68 | 1017.8 |
| 20260504030427 | 11 | 89 | 3.2 | 3.2 | 0.00 | 0.00 | 0.00 | 67 | 1017.8 |
| 20260504025923 | 11 | 78 | 3.2 | 3.2 | 0.00 | 0.00 | 0.00 | 67 | 1017.6 |
| 20260504025420 | 11 | 86 | 3.2 | 3.2 | 0.00 | 0.00 | 0.00 | 66 | 1017.5 |
| 20260504024918 | 11 | 87 | 4.8 | 4.8 | 0.00 | 0.00 | 0.00 | 65 | 1017.4 |
| 20260504024415 | 11 | 87 | 3.2 | 3.2 | 0.00 | 0.00 | 0.00 | 67 | 1017.6 |
| 20260504023912 | 11 | 84 | 3.2 | 3.2 | 0.00 | 0.00 | 0.00 | 65 | 1017.4 |
| 20260504023408 | 11 | 88 | 3.2 | 3.2 | 0.00 | 0.00 | 0.00 | 65 | 1017.4 |
| 20260504022903 | 11 | 82 | 3.2 | 3.2 | 0.00 | 0.00 | 0.00 | 64 | 1017.5 |
| 20260504022400 | 12 | 88 | 3.2 | 3.2 | 0.00 | 0.00 | 0.00 | 63 | 1017.3 |
| 20260504021856 | 12 | 85 | 3.2 | 3.2 | 0.00 | 0.00 | 0.00 | 63 | 1017.1 |
| 20260504021354 | 12 | 81 | 3.2 | 3.2 | 0.00 | 0.00 | 0.00 | 63 | 1017.1 |
| 20260504020851 | 12 | 84 | 3.2 | 3.2 | 0.00 | 0.00 | 0.00 | 62 | 1017.0 |
| 20260504020348 | 12 | 85 | 3.2 | 4.8 | 0.00 | 0.00 | 0.00 | 62 | 1017.2 |
| 20260504015844 | 12 | 83 | 3.2 | 3.2 | 0.00 | 0.00 | 0.00 | 63 | 1017.1 |
| 20260504015340 | 12 | 102 | 3.2 | 3.2 | 0.00 | 0.00 | 0.00 | 62 | 1016.8 |
| 20260504014836 | 12 | 89 | 3.2 | 3.2 | 0.00 | 0.00 | 0.00 | 62 | 1016.8 |
| 20260504014332 | 12 | 79 | 3.2 | 3.2 | 0.00 | 0.00 | 0.00 | 62 | 1016.9 |
| 20260504013830 | 13 | 88 | 3.2 | 3.2 | 0.00 | 0.00 | 0.00 | 61 | 1016.7 |
| 20260504013328 | 13 | 89 | 3.2 | 3.2 | 0.00 | 0.00 | 0.00 | 61 | 1016.9 |
| 20260504012824 | 13 | 81 | 3.2 | 3.2 | 0.00 | 0.00 | 0.00 | 63 | 1016.7 |
| 20260504012322 | 13 | 88 | 3.2 | 3.2 | 0.00 | 0.00 | 0.00 | 63 | 1016.6 |
| 20260504011819 | 13 | 95 | 3.2 | 3.2 | 0.00 | 0.00 | 0.00 | 59 | 1016.7 |
| 20260504011316 | 13 | 98 | 3.2 | 3.2 | 0.00 | 0.00 | 0.00 | 61 | 1016.4 |
| 20260504010811 | 13 | 89 | 1.6 | 3.2 | 0.00 | 0.00 | 0.00 | 58 | 1016.6 |
| 20260504010307 | 13 | 98 | 3.2 | 3.2 | 0.00 | 0.00 | 0.00 | 56 | 1016.5 |
| 20260504005804 | 13 | 80 | 1.6 | 3.2 | 0.00 | 0.00 | 0.00 | 56 | 1016.4 |
| 20260504005301 | 14 | 93 | 3.2 | 4.8 | 0.00 | 0.00 | 0.00 | 51 | 1016.4 |
| 20260504004759 | 14 | 84 | 3.2 | 3.2 | 0.00 | 0.00 | 0.00 | 55 | 1016.3 |
| 20260504004256 | 15 | 76 | 3.2 | 3.2 | 0.00 | 0.00 | 0.00 | 54 | 1016.3 |
| 20260504003752 | 15 | 85 | 1.6 | 3.2 | 0.00 | 0.00 | 0.00 | 57 | 1016.2 |
| 20260504003250 | 15 | 92 | 3.2 | 3.2 | 0.00 | 0.00 | 0.00 | 50 | 1016.2 |
| 20260504002746 | 15 | 81 | 3.2 | 3.2 | 0.00 | 0.00 | 0.00 | 50 | 1016.5 |
| 20260504002243 | 15 | 94 | 1.6 | 3.2 | 0.00 | 0.00 | 0.00 | 47 | 1016.3 |